Weather History for Cecil Field, FL

Change the Weather History Date:

Saturday, August 24, 2013

  Actual Average (KJAX) Record (KJAX)
Temperature  
Mean Temperature 76 °F 81 °F  
Max Temperature 82 °F 90 °F 99 °F (1987)
Min Temperature 71 °F 73 °F 66 °F (1996)
Degree Days  
Heating Degree Days 0 0  
Month to date heating degree days 0  
Since 1 June heating degree days 0  
Since 1 July heating degree days 0  
Cooling Degree Days 12 16  
Month to date cooling degree days 407  
Year to date cooling degree days 1876  
Since 1 June cooling degree days 1392  
Growing Degree Days 26 (Base 50)    
Moisture  
Dew Point 74 °F    
Average Humidity 97    
Maximum Humidity 100    
Minimum Humidity 79    
Precipitation  
Precipitation 0.00 in 0.25 in 4.46 in (1995)
Month to date precipitation 5.01  
Year to date precipitation 33.57  
Snow  
Snow 0.00 in 0.00 in 0.00 in (2002)
Month to date snowfall 0.0  
Since 1 June snowfall 0.0  
Since 1 July snowfall 0.0  
Snow Depth -    
Sea Level Pressure  
Sea Level Pressure 30.09 in    
Wind  
Wind Speed 1 mph (NNE)    
Max Wind Speed 10 mph    
Max Gust Speed -    
Visibility 9 miles    
Events Rain    
T = Trace of Precipitation, MM = Missing Value Source: NWS Daily Summary

Daily Weather History Graph

Daily Weather History Graph

Search for Another Location

Airport:

Trip Planner

Search our weather history database for the weather conditions in past years. The results will help you decide how hot, cold, wet, or windy it might be!

Date:

Astronomy

Aug. 24, 2013 Rise Set
Actual Time 6:59 AM EDT 7:59 PM EDT
Civil Twilight 6:35 AM EDT 8:23 PM EDT
Nautical Twilight 6:05 AM EDT 8:52 PM EDT
Astronomical Twilight 5:35 AM EDT 9:23 PM EDT
Moon 10:15 PM EDT (8/24) 10:36 AM EDT (8/24)
Length of Visible Light 13h 48m
Length of Day
12h 59m
Waning Gibbous, 84% of the Moon is Illuminated
Aug 24
Waning Gibbous
Aug 28
Last Quarter
Sep 5
New
Sep 12
First Quarter
Sep 19
Full

Hourly Weather History & Observations

Time (EDT) Temp. Heat Index Dew Point Humidity Pressure Visibility Wind Dir Wind Speed Gust Speed Precip Events Conditions
12:15 AM 73.4 °F - 73.4 °F 100% 30.06 in 9.0 mi Calm Calm - N/A   Scattered Clouds
12:35 AM 73.4 °F - 73.4 °F 100% 30.05 in 7.0 mi Calm Calm - N/A   Overcast
12:55 AM 73.4 °F - 73.4 °F 100% 30.05 in 5.0 mi Calm Calm - N/A   Overcast
1:15 AM 73.4 °F - 73.4 °F 100% 30.05 in 5.0 mi Calm Calm - N/A   Mostly Cloudy
1:35 AM 73.4 °F - 73.4 °F 100% 30.05 in 5.0 mi Calm Calm - N/A   Mostly Cloudy
2:15 AM 73.4 °F - 73.4 °F 100% 30.06 in 10.0 mi Calm Calm - N/A   Scattered Clouds
2:35 AM 73.4 °F - 73.4 °F 100% 30.05 in 10.0 mi Calm Calm - N/A   Partly Cloudy
2:55 AM 71.6 °F - 71.6 °F 100% 30.05 in 10.0 mi Calm Calm - N/A   Clear
3:15 AM 71.6 °F - 71.6 °F 100% 30.04 in 10.0 mi Calm Calm - N/A   Partly Cloudy
3:35 AM 71.6 °F - 71.6 °F 100% 30.04 in 10.0 mi Calm Calm - N/A   Partly Cloudy
3:55 AM 71.6 °F - 71.6 °F 100% 30.04 in 8.0 mi Calm Calm - N/A   Partly Cloudy
4:15 AM 71.6 °F - 71.6 °F 100% 30.05 in 6.0 mi Calm Calm - N/A   Clear
4:35 AM 71.6 °F - 71.6 °F 100% 30.05 in 8.0 mi Calm Calm - N/A   Clear
4:55 AM 71.6 °F - 71.6 °F 100% 30.05 in 6.0 mi Calm Calm - N/A   Clear
5:35 AM 71.6 °F - 71.6 °F 100% 30.06 in 10.0 mi Calm Calm - N/A   Clear
5:55 AM 71.6 °F - 71.6 °F 100% 30.06 in 10.0 mi Calm Calm - N/A   Clear
6:35 AM 71.6 °F - 71.6 °F 100% 30.06 in 10.0 mi Calm Calm - N/A   Clear
6:50 AM 71.6 °F - 71.6 °F 100% 30.06 in 10.0 mi NNE 3.5 mph - N/A   Mostly Cloudy
7:50 AM 73.4 °F - 73.4 °F 100% 30.09 in 10.0 mi North 4.6 mph - N/A   Mostly Cloudy
8:50 AM 73.4 °F - 73.4 °F 100% 30.11 in 10.0 mi North 4.6 mph - N/A   Mostly Cloudy
9:50 AM 75.2 °F - 75.2 °F 100% 30.13 in 10.0 mi North 6.9 mph - N/A   Mostly Cloudy
10:50 AM 77.0 °F - 75.2 °F 94% 30.14 in 10.0 mi North 3.5 mph - N/A   Mostly Cloudy
11:50 AM 80.6 °F 86.2 °F 75.2 °F 84% 30.13 in 10.0 mi North 3.5 mph - N/A   Mostly Cloudy
12:50 PM 80.6 °F 87.1 °F 77.0 °F 89% 30.13 in 10.0 mi NNE 5.8 mph - N/A   Scattered Clouds
1:50 PM 82.4 °F 90.9 °F 77.0 °F 84% 30.13 in 10.0 mi NE 4.6 mph - N/A   Mostly Cloudy
2:50 PM 78.8 °F - 78.8 °F 100% 30.12 in 5.0 mi NNE 8.1 mph - N/A Rain Light Rain
3:50 PM 82.4 °F 90.9 °F 77.0 °F 84% 30.11 in 10.0 mi NE 5.8 mph - N/A   Mostly Cloudy
4:50 PM 82.4 °F 89.5 °F 75.2 °F 79% 30.09 in 10.0 mi ENE 9.2 mph - N/A   Mostly Cloudy
5:50 PM 80.6 °F 86.2 °F 75.2 °F 84% 30.10 in 10.0 mi Calm Calm - N/A   Partly Cloudy
6:50 PM 80.6 °F 86.2 °F 75.2 °F 84% 30.11 in 10.0 mi East 10.4 mph - N/A   Scattered Clouds
7:50 PM 78.8 °F - 75.2 °F 89% 30.10 in 10.0 mi Calm Calm - N/A   Clear
8:15 PM 77.0 °F - 75.2 °F 94% 30.10 in 10.0 mi Calm Calm - N/A   Clear
8:35 PM 77.0 °F - 75.2 °F 94% 30.11 in 10.0 mi Calm Calm - N/A   Clear
8:55 PM 75.2 °F - 75.2 °F 100% 30.11 in 10.0 mi Calm Calm - N/A   Clear
9:15 PM 75.2 °F - 75.2 °F 100% 30.12 in 9.0 mi Calm Calm - N/A   Clear
9:35 PM 75.2 °F - 75.2 °F 100% 30.13 in 8.0 mi Calm Calm - N/A   Clear
9:55 PM 75.2 °F - 75.2 °F 100% 30.13 in 8.0 mi Calm Calm - N/A   Clear
10:15 PM 73.4 °F - 73.4 °F 100% 30.13 in 10.0 mi Calm Calm - N/A   Clear
10:35 PM 73.4 °F - 73.4 °F 100% 30.14 in 8.0 mi Calm Calm - N/A   Clear
10:55 PM 73.4 °F - 73.4 °F 100% 30.15 in 9.0 mi Calm Calm - N/A   Clear
11:15 PM 73.4 °F - 73.4 °F 100% 30.17 in 10.0 mi Calm Calm - N/A   Clear
11:35 PM 73.4 °F - 73.4 °F 100% 30.16 in 8.0 mi Calm Calm - N/A   Clear
11:55 PM 73.4 °F - 73.4 °F 100% 30.16 in 5.0 mi Calm Calm - N/A   Clear